Regional Weather Roundup
Issued by NWS

Home | Current Version | Previous Version | Graphics & Text | Print | Product List | Glossary On
Versions: 1 2 3 4 5 6 7 8 9 10 11 12 13 14 15 16 17 18 19 20 21 22 23 24 25 26 27 28 29 30 31 32 33 34 35 36 37 38 39 40 41 42 43 44 45 46 47 48 49 50
000
ASUS43 KMKX 231121
RWRWI

WISCONSIN REGIONAL WEATHER ROUNDUP
NATIONAL WEATHER SERVICE MILWAUKEE/SULLIVAN WI
600 AM CDT SAT AUG 23 2014

NOTE: "FAIR" INDICATES FEW OR NO CLOUDS BELOW 12,000 FEET WITH NO
SIGNIFICANT WEATHER AND/OR OBSTRUCTIONS TO VISIBILITY.

WIZ001-002-006>008-014>016-023>028-231200-
NORTHWEST WISCONSIN

CITY           SKY/WX    TMP DP  RH WIND       PRES   REMARKS
SUPERIOR ARPT  CLOUDY    62  61  97 NE7       30.04S
ASHLAND        CLOUDY    62  60  93 NE3       30.05S
HAYWARD        CLOUDY    64  63  96 N6        30.04R
SIREN          CLOUDY    64  64  97 CALM      30.04R FOG
RICE LAKE      CLOUDY    65  64  93 NE5       30.04R
LADYSMITH      CLOUDY    66  65  96 NE3       30.04R FOG
EAU CLAIRE     CLOUDY    68  68 100 N5        29.99R FOG
MENOMONIE      CLOUDY    68  66  95 CALM      30.01R
NEW RICHMOND   CLOUDY    67  66  96 NE5       30.01R
OSCEOLA        CLOUDY    68  68 100 NE7       30.04R
$$

WIZ003>005-009-010-017-018-231200-
NORTH CENTRAL WISCONSIN

CITY           SKY/WX    TMP DP  RH WIND       PRES   REMARKS
WOODRUFF       FOG       67  65  93 N3        30.04R VSB 1
RHINELANDER    FOG       68  67  96 CALM      30.04S VSB 1
EAGLE RIVER    CLOUDY    67  67 100 CALM      30.04R FOG
LAND O LAKES   CLOUDY    65  65 100 CALM      30.06S FOG
PHILLIPS       CLOUDY    64  64 100 NE5       30.03R FOG
TOMAHAWK       FOG       67  66  96 CALM      30.03R VSB 1/2
MEDFORD        FOG       68  68 100 NE3       30.01S VSB 1
MERRILL        CLOUDY    69  69 100 CALM      30.01R FOG
$$

WIZ029-030-035-036-043>047-231200-
CENTRAL WISCONSIN

CITY           SKY/WX    TMP DP  RH WIND       PRES   REMARKS
WAUSAU         FOG       70  69  97 E3        29.99S VSB 1
MOSINEE        FOG       70  70 100 E5        30.01S VSB 1/2
MARSHFIELD     FOG       71  70  96 E5        29.99R VSB 3/4
STEVENS POINT  CLOUDY    68  67  98 E3        30.00R FOG
WAUPACA        FOG       72  70  94 CALM      29.99R VSB 1/2
WAUTOMA        CLOUDY    72  72 100 E5        29.98R FOG
WISC RAPIDS    CLOUDY    71  70  96 E5        29.99R FOG
CAMP DOUGLAS   FOG       72  72 100 E5        29.97R VSB<1/4
$$

WIZ011>013-019>022-031-037>040-048>050-231200-
NORTHEAST WISCONSIN

CITY           SKY/WX    TMP DP  RH WIND       PRES   REMARKS
ANTIGO         CLOUDY    67  67 100 SE3       30.03R FOG
STURGEON BAY   PTCLDY    66  64  94 SE5       30.02S
GREEN BAY      LGT RAIN  68  67  96 NE5       29.99F
MANITOWOC      CLOUDY    68  66  94 CALM      30.00F FOG
APPLETON       FOG       70  68  94 VRB6      29.99S VSB 3/4
CLINTONVILLE   FOG       68  68 100 E6        29.99S VSB 1/2
OSHKOSH        CLOUDY    72  71  97 E3        29.97F FOG
$$

WIZ032>034-041-042-053>061-231200-
SOUTHWEST WISCONSIN

CITY           SKY/WX    TMP DP  RH WIND       PRES   REMARKS
LA CROSSE      CLOUDY    73  71  93 NW5       29.97R
SPARTA         CLOUDY    70  69  98 CALM      29.97S FOG
VIROQUA        FAIR      70  70 100 CALM      29.99R
BOSCOBEL       FOG       74  73  97 CALM      29.95R VSB 1
PRAIRIE DU CHI CLOUDY    75  73  93 CALM      29.94R FOG
PLATTEVILLE    FAIR      73  72  96 CALM      29.97R
$$

WIZ056-057-062-063-064-067-068-231200-
SOUTH CENTRAL WISCONSIN

CITY           SKY/WX    TMP DP  RH WIND       PRES   REMARKS
BARABOO/DELLS  FOG       73  71  95 E5        29.96S VSB<1/4
LONE ROCK      FOG       78  74  87 E3        29.95R VSB 1/4 HX  81
WATERTOWN      FOG       70  70 100 CALM      29.98S VSB 1
MADISON        FOG       74  73  97 SE3       29.96S VSB 3/4
MIDDLETON      CLOUDY    76  76 100 SE6       29.97S
MONROE         FOG       72  72 100 E5        29.96S VSB<1/4
JANESVILLE     CLOUDY    73  72  94 E6        29.96R VSB 1/2
$$

WIZ051-052-058>065-066-070>072-231200-
SOUTHEAST WISCONSIN

CITY           SKY/WX    TMP DP  RH WIND       PRES   REMARKS
MILWAUKEE      FOG       69  68  96 CALM      29.98F VSB 1/2
WAUKESHA       FOG       68  66  94 CALM      30.00S VSB 1/4
MILWAUKEE/TIMM CLOUDY    68  64  88 CALM      30.00S FOG
RACINE         FOG       70  69  97 CALM      30.00S VSB 1/4
BURLINGTON     FOG       69  69 100 E3        29.98S VSB 3/4
KENOSHA        FOG       70  70 100 NE6       29.98F VSB 1/4
FOND DU LAC    CLOUDY    70  68  93 S7        29.99R FOG
SHEBOYGAN      FOG       68  67  96 E3        29.99F VSB 3/4
WEST BEND      FOG       68  64  88 E3        30.00S VSB 1/4
JUNEAU         HAZE      70  46  42 E6        29.99S VSB 1/4
$$

LSZ147-162-231200-
LAKE SUPERIOR

STATION/POSITION TIME  TEMP    WIND        PRES    WAVE
                       AIR SEA DIR/SP/G            HT/PER
                 (UTC) (F)     (DEG/KT/KT) (MB)    (FT/S)
W MID LAKE BUOY  1050   59 58   50/ 10/ 12 1017.4S   1/ 3
DEVILS ISLAND    1100   60      50/ 10/ 11 1017.8R
PORT WING        1000   61      30/  7/  8 1017.3F
SAXON HARBOR     1040   62        CALM     1017.3S
$$

LMZ867-665-643>646-231200-
LAKE MICHIGAN

STATION/POSITION TIME  TEMP    WIND        PRES    WAVE
                       AIR SEA DIR/SP/G            HT/PER
                 (UTC) (F)     (DEG/KT/KT) (MB)    (FT/S)
N MID LAKE BUOY  1050   67 65  120/  8/ 10 1016.3F   0
NORTHPORT PIER   0900   66     150/  3/  4 1016.3S
SISTER BAY       1041   68     140/  6/  8   N/A
KEWAUNEE LAKESHO 1100   67      CALM  /  1 1015.1F
SHEBOYGAN LAKESH 1100   68 65   70/  4/  5 1015.6F
ATWATER BUOY     1100   69      30/  8/  8 1016.4F
MILWAUKEE LAKESH 1100   69      30/  6/  7   N/A
S MID LAKE BUOY  1050   70 69  100/  8/  8 1015.1F   0
KENOSHA   LAKESH 1100   71      30/  5/  7 1014.9F
$$

TC  - TEMPERATURE IN CELSIUS
VSB - VISIBILITY IN STATUTE MILES
WCI - WIND CHILL INDEX
HX  - HEAT INDEX



USA.gov is the U.S. government's official web portal to all federal, state and local government web resources and services.